Location: ?p Thanh B�nh
(16.5833°N, 107.5333°E)
Time: 04:36:49
(UTC+00:00)

SKYMED 2 - Pass Details

Date: 29 October 2020
Orbit: 621 x 623 km, 97.9° (Epoch: 29 November)

Event Time Altitude Azimuth Distance (km) Brightness Sun altitude
Rises 22:10:10 0° 162° (SSE) 2,890 7.4 -9.4°
Reaches altitude 10° 22:12:22 10° 159° (SSE) 1,986 6.6 -8.9°
Maximum altitude 22:16:39 66° 77° (ENE) 681 4.1 -7.9°
Drops below altitude 10° 22:20:56 10° 356° (N) 1,989 6.0 -6.9°
Sets 22:23:08 0° 353° (N) 2,896 6.8 -6.3°
